| time (UTC) | temp C | wind direction | speed KPH | gust KPH | rain 1hr cm | rain 24hr cm | rain mn cm | humidity % | barometer mb |
| 20260504215313 | 19 | 257 | 12.9 | 37.0 | 0.00 | 0.00 | 0.00 | 35 | 1004.7 |
| 20260504214827 | 20 | 261 | 11.3 | 19.3 | 0.00 | 0.00 | 0.00 | 35 | 1004.7 |
| 20260504214322 | 20 | 263 | 8.0 | 19.3 | 0.00 | 0.00 | 0.00 | 36 | 1004.8 |
| 20260504213819 | 20 | 290 | 9.7 | 27.4 | 0.00 | 0.00 | 0.00 | 35 | 1004.7 |
| 20260504213313 | 20 | 262 | 11.3 | 27.4 | 0.00 | 0.00 | 0.00 | 35 | 1004.7 |
| 20260504212828 | 20 | 274 | 9.7 | 32.2 | 0.00 | 0.00 | 0.00 | 35 | 1004.7 |
| 20260504212322 | 20 | 240 | 16.1 | 32.2 | 0.00 | 0.00 | 0.00 | 35 | 1004.6 |
| 20260504211837 | 20 | 223 | 16.1 | 25.7 | 0.00 | 0.00 | 0.00 | 35 | 1004.7 |
| 20260504211331 | 20 | 290 | 11.3 | 20.9 | 0.00 | 0.00 | 0.00 | 36 | 1004.7 |
| 20260504210825 | 20 | 223 | 9.7 | 24.1 | 0.00 | 0.00 | 0.00 | 35 | 1004.7 |
| 20260504210319 | 20 | 264 | 8.0 | 33.8 | 0.00 | 0.00 | 0.00 | 36 | 1004.6 |
| 20260504205818 | 20 | 253 | 17.7 | 33.8 | 0.00 | 0.00 | 0.00 | 35 | 1004.6 |
| 20260504205313 | 20 | 228 | 9.7 | 24.1 | 0.00 | 0.00 | 0.00 | 35 | 1004.6 |
| 20260504204826 | 20 | 287 | 14.5 | 32.2 | 0.00 | 0.00 | 0.00 | 35 | 1004.6 |
| 20260504204321 | 20 | 255 | 9.7 | 32.2 | 0.00 | 0.00 | 0.00 | 35 | 1004.7 |
| 20260504203816 | 20 | 280 | 12.9 | 27.4 | 0.00 | 0.00 | 0.00 | 34 | 1004.6 |
| 20260504203350 | 20 | 271 | 8.0 | 19.3 | 0.00 | 0.00 | 0.00 | 34 | 1004.6 |
| 20260504202824 | 20 | 299 | 11.3 | 24.1 | 0.00 | 0.00 | 0.00 | 35 | 1004.5 |
| 20260504202318 | 20 | 306 | 12.9 | 29.0 | 0.00 | 0.00 | 0.00 | 34 | 1004.5 |
| 20260504201816 | 20 | 240 | 19.3 | 29.0 | 0.00 | 0.00 | 0.00 | 35 | 1004.5 |
| 20260504201330 | 20 | 230 | 14.5 | 35.4 | 0.00 | 0.00 | 0.00 | 35 | 1004.6 |
| 20260504200825 | 20 | 228 | 16.1 | 35.4 | 0.00 | 0.00 | 0.00 | 34 | 1004.6 |
| 20260504200320 | 20 | 256 | 19.3 | 30.6 | 0.00 | 0.00 | 0.00 | 34 | 1004.6 |
| 20260504195815 | 20 | 276 | 14.5 | 32.2 | 0.00 | 0.00 | 0.00 | 35 | 1004.9 |
| 20260504195330 | 20 | 228 | 16.1 | 32.2 | 0.00 | 0.00 | 0.00 | 35 | 1004.8 |
| 20260504194824 | 20 | 254 | 17.7 | 29.0 | 0.00 | 0.00 | 0.00 | 36 | 1004.8 |
| 20260504194319 | 19 | 239 | 9.7 | 27.4 | 0.00 | 0.00 | 0.00 | 37 | 1004.9 |
| 20260504193817 | 19 | 260 | 12.9 | 27.4 | 0.00 | 0.00 | 0.00 | 36 | 1004.8 |
| 20260504193313 | 20 | 245 | 9.7 | 27.4 | 0.00 | 0.00 | 0.00 | 36 | 1004.9 |
| 20260504192826 | 20 | 277 | 16.1 | 29.0 | 0.00 | 0.00 | 0.00 | 36 | 1004.9 |
| 20260504192321 | 20 | 287 | 17.7 | 29.0 | 0.00 | 0.00 | 0.00 | 36 | 1005.0 |
| 20260504191815 | 20 | 231 | 17.7 | 35.4 | 0.00 | 0.00 | 0.00 | 36 | 1004.9 |
| 20260504191331 | 20 | 262 | 16.1 | 35.4 | 0.00 | 0.00 | 0.00 | 36 | 1005.0 |
| 20260504190845 | 20 | 239 | 11.3 | 29.0 | 0.00 | 0.00 | 0.00 | 36 | 1005.0 |
| 20260504190340 | 20 | 290 | 11.3 | 38.6 | 0.00 | 0.00 | 0.00 | 37 | 1005.0 |
| 20260504185818 | 19 | 247 | 11.3 | 27.4 | 0.00 | 0.00 | 0.00 | 38 | 1005.0 |
| 20260504185313 | 19 | 274 | 16.1 | 27.4 | 0.00 | 0.00 | 0.00 | 37 | 1005.1 |
| 20260504184849 | 18 | 268 | 11.3 | 27.4 | 0.00 | 0.00 | 0.00 | 39 | 1005.0 |
| 20260504184323 | 18 | 287 | 14.5 | 29.0 | 0.00 | 0.00 | 0.00 | 39 | 1005.1 |
| 20260504183819 | 18 | 275 | 14.5 | 29.0 | 0.00 | 0.00 | 0.00 | 39 | 1005.2 |
| 20260504183314 | 18 | 265 | 8.0 | 25.7 | 0.00 | 0.00 | 0.00 | 40 | 1005.3 |
| 20260504182810 | 17 | 243 | 16.1 | 29.0 | 0.00 | 0.00 | 0.00 | 40 | 1005.3 |
| 20260504182325 | 17 | 253 | 4.8 | 29.0 | 0.00 | 0.00 | 0.00 | 42 | 1005.4 |
| 20260504181839 | 17 | 265 | 4.8 | 17.7 | 0.00 | 0.00 | 0.00 | 42 | 1005.5 |
| 20260504181317 | 17 | 252 | 6.4 | 30.6 | 0.00 | 0.00 | 0.00 | 42 | 1005.5 |
| 20260504180811 | 17 | 271 | 11.3 | 19.3 | 0.00 | 0.00 | 0.00 | 42 | 1005.6 |
| 20260504180326 | 17 | 278 | 4.8 | 20.9 | 0.00 | 0.00 | 0.00 | 42 | 1005.5 |
| 20260504175820 | 17 | 242 | 11.3 | 20.9 | 0.00 | 0.00 | 0.00 | 41 | 1005.5 |
| 20260504175336 | 17 | 277 | 8.0 | 27.4 | 0.00 | 0.00 | 0.00 | 41 | 1005.5 |
| 20260504174810 | 17 | 273 | 14.5 | 29.0 | 0.00 | 0.00 | 0.00 | 41 | 1005.4 |
| 20260504174324 | 17 | 257 | 8.0 | 29.0 | 0.00 | 0.00 | 0.00 | 40 | 1005.4 |
| 20260504173816 | 17 | 278 | 14.5 | 27.4 | 0.00 | 0.00 | 0.00 | 39 | 1005.4 |
| 20260504173310 | 17 | 228 | 8.0 | 20.9 | 0.00 | 0.00 | 0.00 | 40 | 1005.4 |
| 20260504172821 | 17 | 260 | 6.4 | 19.3 | 0.00 | 0.00 | 0.00 | 40 | 1005.4 |
| 20260504172351 | 17 | 273 | 6.4 | 19.3 | 0.00 | 0.00 | 0.00 | 40 | 1005.4 |
| 20260504171820 | 17 | 249 | 8.0 | 20.9 | 0.00 | 0.00 | 0.00 | 39 | 1005.4 |
| 20260504171313 | 17 | 227 | 6.4 | 27.4 | 0.00 | 0.00 | 0.00 | 39 | 1005.5 |
| 20260504170827 | 17 | 262 | 12.9 | 29.0 | 0.00 | 0.00 | 0.00 | 38 | 1005.4 |
| 20260504160323 | 18 | 273 | 11.3 | 32.2 | 0.00 | 0.00 | 0.00 | 37 | 1005.2 |
| 20260504150816 | 16 | 247 | 16.1 | 40.2 | 0.00 | 0.00 | 0.00 | 41 | 1006.0 |
| 20260504150328 | 16 | 223 | 17.7 | 33.8 | 0.00 | 0.00 | 0.00 | 42 | 1005.9 |
| 20260504141322 | 14 | 228 | 12.9 | 25.7 | 0.00 | 0.00 | 0.00 | 49 | 1006.6 |
| 20260504140818 | 13 | 237 | 11.3 | 22.5 | 0.00 | 0.00 | 0.00 | 50 | 1006.6 |
| 20260504140312 | 13 | 251 | 8.0 | 22.5 | 0.00 | 0.00 | 0.00 | 52 | 1006.7 |
| 20260504130821 | 11 | 233 | 9.7 | 17.7 | 0.00 | 0.00 | 0.00 | 59 | 1007.3 |
| 20260504130316 | 11 | 232 | 4.8 | 16.1 | 0.00 | 0.00 | 0.00 | 60 | 1007.4 |
| 20260504110326 | 7 | 230 | 9.7 | 19.3 | 0.00 | 0.00 | 0.00 | 66 | 1008.1 |
| 20260504100312 | 6 | 274 | 4.8 | 11.3 | 0.00 | 0.00 | 0.00 | 66 | 1007.9 |
| 20260504081845 | 6 | 258 | 3.2 | 12.9 | 0.00 | 0.00 | 0.00 | 59 | 1007.9 |
| 20260504081322 | 6 | 262 | 1.6 | 12.9 | 0.00 | 0.00 | 0.00 | 58 | 1007.9 |
| 20260504080817 | 6 | 277 | 6.4 | 19.3 | 0.00 | 0.00 | 0.00 | 58 | 1007.8 |
| 20260504080312 | 6 | 267 | 6.4 | 19.3 | 0.00 | 0.00 | 0.00 | 57 | 1008.0 |
| 20260504070320 | 5 | 259 | 1.6 | 6.4 | 0.00 | 0.00 | 0.00 | 61 | 1007.7 |
| 20260504050314 | 5 | 228 | 6.4 | 16.1 | 0.00 | 0.05 | 0.00 | 60 | 1007.7 |
| 20260504045850 | 5 | 244 | 8.0 | 16.1 | 0.00 | 0.05 | 0.00 | 60 | 1007.7 |
| 20260504045345 | 5 | 228 | 9.7 | 14.5 | 0.00 | 0.05 | 0.00 | 60 | 1007.7 |
| 20260504044824 | 5 | 239 | 6.4 | 12.9 | 0.00 | 0.05 | 0.00 | 61 | 1007.7 |
| 20260504044319 | 5 | 242 | 4.8 | 11.3 | 0.00 | 0.05 | 0.00 | 61 | 1007.8 |
| 20260504043814 | 5 | 270 | 4.8 | 11.3 | 0.00 | 0.05 | 0.00 | 61 | 1007.8 |
| 20260504043330 | 5 | 242 | 4.8 | 11.3 | 0.00 | 0.05 | 0.00 | 61 | 1007.7 |
| 20260504042826 | 5 | 281 | 4.8 | 12.9 | 0.00 | 0.05 | 0.00 | 62 | 1007.7 |
| 20260504042321 | 5 | 243 | 4.8 | 12.9 | 0.00 | 0.08 | 0.00 | 63 | 1007.6 |
| 20260504041817 | 5 | 248 | 6.4 | 11.3 | 0.00 | 0.08 | 0.00 | 63 | 1007.6 |
| 20260504041316 | 4 | 233 | 4.8 | 11.3 | 0.00 | 0.08 | 0.00 | 66 | 1007.6 |
| 20260504040812 | 4 | 228 | 4.8 | 11.3 | 0.00 | 0.08 | 0.00 | 67 | 1007.5 |
| 20260504040327 | 4 | 228 | 4.8 | 11.3 | 0.00 | 0.08 | 0.00 | 67 | 1007.4 |
| 20260504035823 | 4 | 228 | 4.8 | 17.7 | 0.00 | 0.08 | 0.00 | 68 | 1007.4 |
| 20260504035339 | 3 | 239 | 6.4 | 17.7 | 0.00 | 0.08 | 0.00 | 68 | 1007.5 |
| 20260504034815 | 3 | 230 | 3.2 | 8.0 | 0.00 | 0.08 | 0.00 | 71 | 1007.4 |
| 20260504034351 | 3 | 235 | 3.2 | 9.7 | 0.00 | 0.08 | 0.00 | 70 | 1007.4 |
| 20260504033825 | 4 | 224 | 4.8 | 11.3 | 0.00 | 0.08 | 0.00 | 65 | 1007.5 |
| 20260504033324 | 5 | 226 | 4.8 | 11.3 | 0.00 | 0.08 | 0.00 | 65 | 1007.5 |
| 20260504032820 | 5 | 247 | 4.8 | 9.7 | 0.00 | 0.08 | 0.00 | 65 | 1007.4 |
| 20260504032315 | 5 | 234 | 3.2 | 8.0 | 0.00 | 0.08 | 0.08 | 66 | 1007.4 |
| 20260504031810 | 5 | 249 | 4.8 | 14.5 | 0.00 | 0.08 | 0.08 | 62 | 1007.4 |
| 20260504031345 | 6 | 268 | 1.6 | 12.9 | 0.00 | 0.08 | 0.08 | 61 | 1007.3 |
| 20260504030820 | 6 | 282 | 4.8 | 12.9 | 0.00 | 0.08 | 0.08 | 58 | 1007.3 |
| 20260504030315 | 6 | 273 | 3.2 | 9.7 | 0.00 | 0.08 | 0.08 | 58 | 1007.3 |
| 20260504025851 | 6 | 243 | 4.8 | 17.7 | 0.00 | 0.08 | 0.08 | 59 | 1007.4 |
| 20260504025326 | 6 | 268 | 6.4 | 19.3 | 0.00 | 0.08 | 0.08 | 59 | 1007.4 |
| 20260504024824 | 5 | 253 | 8.0 | 19.3 | 0.00 | 0.08 | 0.08 | 61 | 1007.4 |
| 20260504024320 | 5 | 267 | 6.4 | 12.9 | 0.00 | 0.08 | 0.08 | 62 | 1007.5 |
| 20260504023815 | 5 | 267 | 6.4 | 9.7 | 0.00 | 0.08 | 0.08 | 62 | 1007.4 |
| 20260504023310 | 5 | 254 | 3.2 | 6.4 | 0.00 | 0.08 | 0.08 | 63 | 1007.4 |
| 20260504022845 | 5 | 235 | 1.6 | 8.0 | 0.00 | 0.08 | 0.08 | 63 | 1007.4 |
| 20260504022319 | 5 | 269 | 4.8 | 9.7 | 0.00 | 0.08 | 0.08 | 61 | 1007.5 |
| 20260504021814 | 5 | 268 | 4.8 | 9.7 | 0.00 | 0.08 | 0.08 | 63 | 1007.5 |
| 20260504021313 | 5 | 249 | 1.6 | 6.4 | 0.00 | 0.08 | 0.08 | 63 | 1007.5 |
| 20260504020829 | 5 | 249 | 1.6 | 4.8 | 0.00 | 0.08 | 0.08 | 61 | 1007.4 |
| 20260504020325 | 6 | 249 | 1.6 | 4.8 | 0.00 | 0.08 | 0.08 | 60 | 1007.4 |
| 20260504015819 | 6 | 239 | 1.6 | 8.0 | 0.00 | 0.08 | 0.08 | 59 | 1007.5 |
| 20260504015314 | 6 | 253 | 3.2 | 11.3 | 0.00 | 0.08 | 0.08 | 57 | 1007.5 |
| 20260504014829 | 6 | 244 | 4.8 | 11.3 | 0.00 | 0.08 | 0.08 | 56 | 1007.5 |
| 20260504014344 | 6 | 247 | 6.4 | 9.7 | 0.00 | 0.08 | 0.08 | 55 | 1007.5 |
| 20260504013838 | 6 | 267 | 4.8 | 14.5 | 0.00 | 0.08 | 0.08 | 55 | 1007.5 |
| 20260504013332 | 7 | 242 | 4.8 | 14.5 | 0.00 | 0.08 | 0.08 | 54 | 1007.5 |
| 20260504012825 | 7 | 214 | 4.8 | 12.9 | 0.00 | 0.08 | 0.08 | 53 | 1007.4 |
| 20260504012323 | 7 | 242 | 6.4 | 12.9 | 0.00 | 0.10 | 0.08 | 53 | 1007.5 |
| 20260504011818 | 7 | 253 | 4.8 | 12.9 | 0.00 | 0.10 | 0.08 | 53 | 1007.5 |
| 20260504011312 | 7 | 265 | 6.4 | 14.5 | 0.00 | 0.10 | 0.08 | 53 | 1007.4 |
| 20260504010827 | 7 | 274 | 8.0 | 20.9 | 0.00 | 0.10 | 0.08 | 53 | 1007.3 |
| 20260504010321 | 7 | 275 | 9.7 | 20.9 | 0.00 | 0.10 | 0.08 | 54 | 1007.3 |
| 20260504005815 | 7 | 254 | 4.8 | 14.5 | 0.00 | 0.10 | 0.08 | 54 | 1007.2 |
| 20260504005329 | 6 | 255 | 6.4 | 14.5 | 0.00 | 0.10 | 0.08 | 54 | 1007.1 |
| 20260504004827 | 6 | 261 | 4.8 | 8.0 | 0.00 | 0.10 | 0.08 | 54 | 1007.1 |
| 20260504004342 | 6 | 271 | 1.6 | 6.4 | 0.00 | 0.10 | 0.08 | 54 | 1007.0 |
| 20260504003815 | 7 | 271 | 3.2 | 9.7 | 0.00 | 0.10 | 0.08 | 54 | 1006.9 |
| 20260504003328 | 7 | 261 | 4.8 | 11.3 | 0.00 | 0.10 | 0.08 | 53 | 1006.9 |
| 20260504002822 | 7 | 276 | 4.8 | 14.5 | 0.00 | 0.10 | 0.08 | 54 | 1006.9 |
| 20260504002337 | 7 | 261 | 3.2 | 14.5 | 0.00 | 0.13 | 0.08 | 54 | 1006.8 |
| 20260504001810 | 7 | 292 | 4.8 | 11.3 | 0.00 | 0.13 | 0.08 | 55 | 1006.8 |
| 20260504001325 | 7 | 246 | 4.8 | 8.0 | 0.00 | 0.13 | 0.08 | 55 | 1006.8 |
| 20260504000821 | 7 | 254 | 3.2 | 8.0 | 0.00 | 0.13 | 0.08 | 54 | 1006.7 |
| 20260504000320 | 7 | 259 | 1.6 | 4.8 | 0.00 | 0.13 | 0.08 | 55 | 1006.6 |
| 20260503235814 | 7 | 277 | 1.6 | 11.3 | 0.00 | 0.13 | 0.08 | 53 | 1006.5 |
| 20260503235350 | 7 | 261 | 3.2 | 8.0 | 0.00 | 0.13 | 0.08 | 52 | 1006.4 |
| 20260503234824 | 7 | 231 | 3.2 | 8.0 | 0.00 | 0.13 | 0.08 | 52 | 1006.4 |
| 20260503234339 | 7 | 270 | 3.2 | 11.3 | 0.00 | 0.13 | 0.08 | 51 | 1006.3 |
| 20260503233813 | 7 | 273 | 3.2 | 11.3 | 0.00 | 0.13 | 0.08 | 51 | 1006.2 |
| 20260503233347 | 8 | 247 | 1.6 | 14.5 | 0.00 | 0.13 | 0.08 | 50 | 1006.2 |
| 20260503232821 | 8 | 281 | 3.2 | 14.5 | 0.00 | 0.13 | 0.08 | 49 | 1006.2 |
| 20260503232316 | 8 | 274 | 4.8 | 11.3 | 0.00 | 0.15 | 0.08 | 49 | 1006.2 |
| 20260503231835 | 8 | 261 | 1.6 | 11.3 | 0.00 | 0.15 | 0.08 | 49 | 1006.2 |
| 20260503231329 | 8 | 271 | 3.2 | 9.7 | 0.00 | 0.15 | 0.08 | 48 | 1006.1 |
| 20260503230824 | 8 | 242 | 3.2 | 17.7 | 0.00 | 0.15 | 0.08 | 47 | 1006.1 |
| 20260503230339 | 8 | 264 | 9.7 | 24.1 | 0.00 | 0.15 | 0.08 | 46 | 1006.0 |
| 20260503225833 | 9 | 249 | 4.8 | 20.9 | 0.00 | 0.15 | 0.08 | 46 | 1006.0 |
| 20260503225326 | 9 | 295 | 6.4 | 20.9 | 0.00 | 0.15 | 0.08 | 46 | 1005.9 |
| 20260503224821 | 9 | 7 | 4.8 | 22.5 | 0.00 | 0.15 | 0.08 | 45 | 1005.9 |
| 20260503224316 | 9 | 302 | 8.0 | 22.5 | 0.00 | 0.15 | 0.08 | 45 | 1005.9 |
| 20260503223830 | 9 | 360 | 9.7 | 22.5 | 0.00 | 0.15 | 0.08 | 44 | 1005.8 |
| 20260503223329 | 10 | 312 | 8.0 | 16.1 | 0.00 | 0.15 | 0.08 | 44 | 1005.8 |
| 20260503222824 | 10 | 216 | 6.4 | 17.7 | 0.00 | 0.15 | 0.08 | 45 | 1005.7 |
| 20260503222320 | 10 | 55 | 8.0 | 24.1 | 0.00 | 0.15 | 0.08 | 44 | 1005.7 |
| 20260503221833 | 10 | 302 | 8.0 | 19.3 | 0.00 | 0.15 | 0.08 | 45 | 1005.7 |
| 20260503221326 | 10 | 282 | 4.8 | 16.1 | 0.00 | 0.15 | 0.08 | 46 | 1005.7 |
| 20260503220841 | 10 | 351 | 6.4 | 27.4 | 0.00 | 0.15 | 0.08 | 45 | 1005.7 |
| 20260503220315 | 10 | 296 | 11.3 | 27.4 | 0.00 | 0.15 | 0.08 | 45 | 1005.6 |
| 20260503215830 | 10 | 277 | 9.7 | 24.1 | 0.00 | 0.15 | 0.08 | 44 | 1005.5 |